Theta_e
341 342 342 342 341 339 337 335 336 336 337 337 337 338 337 339 343 343 342 343 343 344 343 342 341 339 337 336 336 335 333 329 327 328 329 330 333 333 331 331 333 334 335 335 335 334 332 331 330 330 330 331 330 331 332 334 336 337 336 337 339 340 340 340 340 339 340 340 339 339 338 338 337 337 336 336 334 329 322 318 317 316 316 317 317
341 341 341 341 340 337 335 334 335 336 337 337 337 337 337 339 342 342 342 342 343 343 343 342 343 341 340 339 339 338 336 334 332 331 330 329 330 331 330 330 331 332 334 334 334 334 333 333 332 332 332 332 333 333 334 335 336 336 336 337 339 341 340 339 339 339 340 339 338 337 336 336 335 335 333 333 331 325 318 317 316 316 316 316 316
341 341 340 340 338 336 335 334 335 337 338 337 336 336 337 339 340 341 342 341 342 343 343 343 343 342 342 342 342 341 338 337 336 335 334 333 333 333 332 330 331 331 332 333 333 333 333 333 333 332 332 333 333 333 334 336 337 338 338 338 340 340 339 339 338 337 337 336 335 334 333 331 329 328 327 328 325 319 317 317 316 316 316 316 316
340 340 338 337 336 336 336 335 336 337 337 337 337 337 337 338 339 341 341 341 342 344 344 345 344 344 344 344 343 342 340 339 339 338 337 336 335 335 334 334 334 333 334 334 334 334 334 334 333 332 332 332 333 334 335 337 338 338 338 338 339 338 338 337 334 333 333 331 329 326 323 321 320 320 322 322 319 317 317 316 316 316 316 316 317
339 339 338 338 337 336 336 336 336 337 337 337 338 338 338 339 339 341 340 341 344 345 345 345 345 345 345 345 345 344 343 342 343 342 340 339 337 336 336 336 335 335 335 335 335 335 335 335 335 335 334 335 335 336 336 337 337 336 336 336 336 335 335 333 331 330 329 326 321 318 316 316 316 317 318 318 317 317 317 317 317 317 317 318 318
339 340 340 339 339 338 338 338 338 338 338 338 339 340 340 340 340 340 341 342 344 345 345 346 346 346 346 346 346 345 345 345 345 344 342 341 340 339 339 338 337 337 336 336 336 336 336 336 335 335 335 336 335 336 336 336 335 334 334 334 333 333 331 330 329 327 324 320 317 316 316 316 317 317 317 317 318 318 318 318 318 318 319 319 319
341 341 341 341 340 340 340 340 340 340 341 341 340 341 342 342 341 341 342 343 344 345 345 346 345 346 346 346 346 346 346 346 346 345 343 342 341 341 341 340 340 340 340 340 340 339 339 339 338 337 336 335 335 336 335 335 335 334 333 332 331 330 329 327 325 323 320 317 316 316 316 317 317 317 318 318 318 318 318 319 319 319 319 319 319
342 341 341 342 341 340 340 340 341 342 342 342 342 342 342 342 341 343 343 344 345 346 345 345 346 346 346 346 347 346 347 346 346 345 344 344 344 344 343 342 342 343 343 343 343 343 342 340 339 339 338 337 337 336 336 335 335 334 332 331 329 327 325 323 322 320 318 317 317 317 317 317 317 318 318 318 318 318 319 319 319 319 319 320 320
343 342 342 342 342 341 340 340 340 341 341 341 341 342 342 342 342 343 344 344 346 346 345 346 346 346 347 347 347 346 346 346 346 346 346 346 346 346 346 345 344 345 345 344 344 342 339 336 334 335 336 336 335 335 334 334 333 332 330 328 325 323 321 320 319 318 318 318 317 317 318 318 318 318 319 319 319 319 319 319 319 319 319 320 320
342 343 343 342 341 341 340 339 339 340 340 339 340 340 340 341 341 343 344 344 345 346 346 345 345 345 346 346 346 346 346 347 347 347 347 347 347 347 347 347 346 345 343 342 341 338 333 332 330 329 329 329 330 331 332 331 330 329 326 324 322 320 319 319 319 319 319 319 319 319 320 320 320 320 320 321 321 321 321 321 321 321 321 321 321
342 343 343 342 341 341 340 339 339 340 340 339 339 339 340 340 341 343 344 344 345 345 345 345 343 344 345 344 344 344 346 347 347 347 347 347 347 347 346 345 344 342 339 337 336 334 331 331 328 325 324 324 326 327 328 327 326 324 323 321 320 320 319 319 320 320 321 321 321 322 322 322 322 323 323 323 324 324 324 324 324 324 324 324 323
342 343 343 342 342 341 341 340 339 340 340 340 339 340 341 342 342 343 344 345 345 345 345 345 343 343 342 342 342 343 345 347 347 346 347 346 345 344 342 341 339 338 336 335 335 335 335 335 332 329 327 324 324 323 323 323 322 321 321 320 321 321 321 321 322 322 323 323 324 324 325 325 326 326 327 327 327 328 328 328 328 329 329 328 328
342 343 343 342 342 342 341 341 340 340 340 340 340 340 342 343 343 343 344 345 345 346 345 344 343 343 343 342 341 342 344 345 345 345 344 344 343 343 342 340 338 336 336 337 338 339 340 340 339 337 334 330 327 324 323 322 322 322 322 322 322 323 323 324 324 325 326 326 327 327 328 329 329 330 331 331 332 333 333 334 334 334 334 333 333
343 343 342 342 342 342 340 341 341 340 340 340 340 341 342 343 344 344 344 345 345 346 345 344 344 344 343 342 341 342 343 343 343 343 342 342 342 342 343 341 339 337 337 338 339 341 341 342 342 341 340 338 334 330 328 326 325 325 325 325 325 326 326 327 328 329 330 331 331 332 333 334 336 337 338 339 340 340 341 342 342 341 341 341 340
344 343 342 342 343 342 340 341 340 339 339 340 340 341 342 343 344 344 345 345 345 345 345 343 344 344 342 342 342 342 343 342 342 342 342 342 342 342 342 342 341 339 339 340 340 341 342 342 342 342 342 341 339 336 334 332 331 330 329 329 329 329 330 331 333 335 336 338 339 340 341 342 343 344 344 345 345 346 347 347 347 347 347 347 346
344 343 342 342 342 342 341 340 339 338 339 340 340 342 343 343 344 344 345 345 345 345 344 342 343 343 343 343 343 343 344 343 342 341 341 342 342 342 342 341 341 341 341 341 342 342 342 342 342 342 342 341 340 339 338 337 336 335 334 333 332 333 335 337 339 341 343 344 344 345 346 347 347 347 348 348 348 348 348 349 349 349 349 349 349
344 343 342 341 342 342 342 342 341 340 339 340 341 342 344 344 344 344 344 344 344 344 343 342 341 341 342 343 344 345 345 344 343 341 341 342 342 341 341 342 341 342 342 342 342 342 342 342 342 341 341 340 341 341 341 340 340 340 340 339 339 340 341 343 344 345 346 346 346 347 348 348 348 349 349 349 349 349 349 350 350 350 350 349 350
344 343 342 341 341 342 342 343 343 343 342 341 341 342 344 344 343 343 343 343 343 343 343 341 341 341 340 341 342 343 344 345 345 343 341 341 341 341 341 341 341 341 341 341 341 342 342 341 341 340 340 340 341 342 342 343 343 343 344 344 344 344 345 345 345 346 346 346 346 347 347 348 348 349 349 349 349 349 350 350 351 351 351 351 351
343 343 342 342 341 342 343 343 344 345 344 343 342 342 344 344 343 342 342 342 341 342 342 340 340 340 340 340 341 342 344 345 345 345 344 342 340 341 343 342 341 340 340 340 340 341 341 340 340 340 340 340 340 341 342 344 344 345 344 343 342 342 343 344 344 345 345 345 346 346 347 347 348 349 350 350 350 351 351 352 353 353 353 353 352
343 343 342 342 342 342 343 344 345 345 345 344 343 343 343 343 342 341 341 341 341 341 340 340 339 340 340 340 341 343 344 345 344 344 345 346 343 342 343 343 342 341 340 340 339 339 339 339 339 339 339 339 340 340 340 341 342 342 341 340 340 340 341 341 342 343 344 345 345 346 347 347 349 350 351 351 352 353 353 353 353 353 352 350 348
342 342 342 343 343 343 344 344 344 346 345 345 344 344 343 342 341 341 341 340 340 340 339 338 340 340 340 340 341 342 344 344 343 343 344 346 345 344 344 343 344 342 340 340 339 338 338 338 339 339 340 340 340 340 340 340 340 339 339 338 339 339 339 339 339 341 342 343 344 345 346 347 349 351 351 352 353 353 353 352 352 349 345 341 338
342 342 342 343 343 343 343 343 343 345 345 344 344 344 343 342 341 340 340 340 340 339 338 338 340 340 339 339 341 342 344 344 344 344 345 345 345 346 345 345 344 342 340 340 338 337 338 339 339 340 341 341 341 341 340 340 340 340 340 339 338 337 336 335 336 338 339 340 342 344 346 348 350 351 351 352 352 352 352 351 347 341 334 329 327
342 342 342 343 343 343 343 343 343 344 344 344 343 343 343 343 342 341 341 340 340 339 338 338 340 340 339 339 340 342 344 345 345 344 345 347 346 346 346 345 344 341 340 340 338 337 338 338 339 340 341 341 341 341 340 340 340 338 337 336 335 334 333 333 334 336 338 340 342 344 346 349 351 352 352 352 352 352 351 347 339 331 326 325 324
342 342 342 342 343 343 343 344 344 343 344 344 344 344 343 343 342 342 340 339 339 339 339 339 340 340 339 339 339 341 343 344 344 343 345 346 345 346 347 344 342 341 341 340 339 338 338 338 339 340 341 342 341 340 338 337 334 331 330 330 330 331 331 332 334 337 340 342 345 347 349 351 351 352 351 351 352 350 345 338 330 325 324 324 323
341 341 341 342 342 342 343 343 344 344 344 344 345 345 344 344 342 341 339 337 338 339 339 340 341 340 340 339 339 340 342 343 343 344 346 345 344 346 346 343 342 341 339 338 338 338 338 338 339 340 340 341 338 336 333 331 329 327 327 327 328 329 330 333 336 340 343 346 348 350 350 350 350 349 350 350 349 343 336 330 326 324 324 323 322
340 340 340 341 341 341 341 342 343 344 343 344 345 345 345 344 343 342 340 339 338 338 339 340 341 341 341 339 339 340 342 342 342 344 347 347 345 345 344 342 342 339 335 334 334 337 337 336 336 337 338 337 335 331 329 328 328 327 326 326 328 330 331 334 337 342 345 347 348 348 349 348 347 348 350 348 341 334 329 327 325 324 323 322 321
341 341 340 340 340 340 341 341 342 343 343 344 344 345 345 344 344 343 342 341 339 338 338 339 340 342 341 340 340 341 342 342 342 344 347 346 344 343 342 342 342 339 334 331 332 334 333 332 334 335 335 334 332 330 329 328 328 327 327 327 329 331 333 336 338 342 345 346 345 345 345 346 347 349 348 341 332 329 328 326 324 323 322 321 321
343 343 342 340 339 339 340 341 341 341 341 342 343 344 344 344 344 343 343 344 342 339 338 338 339 341 341 341 342 342 342 342 342 345 346 345 343 343 342 341 342 340 334 331 334 335 333 333 336 335 334 334 333 331 330 329 328 328 327 328 330 331 334 337 339 341 344 344 342 342 345 347 350 349 343 333 328 327 327 326 324 322 321 321 321
343 343 343 342 340 338 339 341 341 341 341 341 341 343 343 344 344 345 345 345 343 341 340 338 338 339 339 340 341 342 342 341 342 346 346 344 344 343 342 342 341 340 337 333 335 338 336 337 340 337 336 336 334 331 330 330 329 328 329 330 329 330 333 336 339 341 341 341 342 344 348 350 350 345 337 329 327 327 326 325 323 322 321 321 322
343 343 343 344 342 340 339 340 341 341 341 341 341 341 342 343 345 346 347 345 344 344 342 340 338 336 335 336 339 341 342 342 343 346 345 344 344 343 342 342 340 340 340 336 336 338 337 340 342 341 339 338 335 332 331 331 330 329 330 331 330 330 332 335 338 339 340 341 344 348 350 350 348 342 335 328 326 326 325 323 322 321 322 322 322
340 342 343 344 344 342 342 342 342 342 342 342 341 341 341 342 344 346 347 347 345 345 345 343 341 337 332 332 336 340 341 342 343 345 345 344 344 343 342 341 339 340 339 337 338 338 336 338 341 340 340 338 335 333 331 330 330 329 330 330 329 329 332 335 337 338 339 342 346 350 351 349 347 342 333 327 326 325 324 323 322 321 322 322 322
336 338 340 342 343 343 343 343 343 343 343 343 342 342 342 342 342 343 345 346 346 346 347 346 345 341 335 331 333 337 340 341 343 344 344 344 343 343 342 341 338 338 338 338 337 336 335 336 337 337 338 337 335 334 332 330 329 330 330 329 329 329 331 335 337 338 339 343 347 350 350 349 346 341 333 327 326 324 323 322 322 322 322 322 322
331 333 336 340 342 342 343 343 343 343 343 344 344 344 343 342 342 342 342 343 344 344 346 347 346 343 339 334 332 334 336 339 342 343 343 343 343 342 342 340 338 337 338 337 336 334 334 334 334 334 335 335 335 334 332 330 329 329 329 329 329 329 330 333 338 340 340 344 348 349 349 349 346 341 333 328 326 324 323 322 321 322 322 322 323
329 330 332 336 339 341 342 342 342 342 341 341 342 342 342 342 342 342 341 341 341 341 342 343 345 344 342 339 336 335 335 334 337 341 343 343 342 341 341 339 338 337 337 337 336 335 334 333 332 333 334 334 334 334 332 330 328 328 329 328 328 329 330 330 336 341 341 344 347 347 348 348 346 342 334 329 327 324 323 322 321 322 322 323 323
327 328 329 331 335 338 341 341 341 340 338 337 336 335 336 336 337 338 340 341 340 340 339 340 342 343 342 340 339 339 337 333 332 334 338 341 341 340 339 338 337 337 336 336 337 337 335 333 332 333 333 333 333 333 333 330 329 329 329 329 328 330 331 331 334 337 338 343 347 347 347 347 346 343 336 331 328 326 323 322 321 322 322 322 323
327 327 328 329 331 334 338 340 339 337 334 333 331 330 330 330 331 332 336 339 340 340 339 339 339 340 341 340 340 340 339 336 334 331 332 334 335 336 337 336 336 336 335 336 339 338 335 333 333 333 332 333 333 333 333 331 330 330 331 331 331 330 332 333 334 335 336 341 346 347 346 346 346 344 338 333 330 327 324 322 322 322 322 322 323
329 327 327 327 328 330 333 334 333 331 330 330 329 328 328 328 329 329 331 334 337 339 339 339 338 338 339 339 339 339 339 337 336 333 332 331 331 333 335 335 335 335 336 337 339 338 335 334 334 334 333 333 332 332 333 333 331 330 331 333 334 333 332 334 336 337 337 341 346 347 346 346 346 344 340 336 332 329 326 323 321 322 322 322 323
331 329 328 327 327 327 328 328 328 327 327 327 327 327 327 327 327 328 329 329 332 335 337 339 339 338 338 338 337 338 338 338 337 336 334 333 332 333 333 334 334 335 337 338 338 337 337 336 336 334 333 333 333 332 333 334 332 331 332 332 334 335 333 332 335 338 340 343 346 348 347 346 345 345 342 338 335 331 327 324 322 322 322 322 322
335 332 329 328 327 327 326 326 326 326 326 326 326 326 326 326 326 326 327 327 328 330 332 335 337 338 338 337 336 336 337 338 337 337 336 335 335 334 334 335 335 337 337 337 337 337 338 338 337 335 333 332 332 332 332 334 333 333 335 334 334 335 335 334 334 336 340 344 347 348 347 346 345 345 344 341 337 333 329 325 322 322 322 322 322
341 337 333 329 327 327 327 326 326 326 326 326 326 326 325 325 325 325 326 326 326 327 328 330 333 335 337 337 336 335 336 336 337 337 337 337 336 335 335 336 336 336 335 335 336 337 338 338 337 335 333 332 331 331 332 334 334 337 340 340 337 337 336 336 336 337 340 344 347 349 348 346 345 345 345 343 340 336 331 326 323 322 322 322 322
344 343 340 336 332 329 327 327 326 326 326 326 326 325 325 325 325 325 325 325 325 325 326 328 330 332 334 335 336 335 334 335 336 336 337 336 337 336 336 336 336 336 335 335 336 337 338 338 337 335 334 332 330 331 333 335 336 339 343 344 343 342 340 339 338 338 338 340 344 348 347 346 346 345 345 344 343 340 334 328 324 322 322 322 322
346 346 345 344 340 335 330 328 327 327 326 326 326 325 325 325 325 325 325 326 326 325 325 326 328 330 331 333 335 335 335 335 334 335 336 336 336 336 336 336 336 336 337 336 337 337 337 337 336 335 334 332 331 332 334 336 337 340 344 346 345 345 344 344 342 338 336 338 340 343 345 345 346 345 344 344 344 343 338 331 324 323 322 322 322
347 347 347 347 347 344 339 333 328 327 327 326 326 326 325 325 325 326 326 325 325 325 325 324 325 328 330 331 333 334 335 336 334 334 335 335 335 336 336 336 336 337 337 337 337 337 336 336 335 334 334 333 331 331 333 335 337 341 344 345 345 345 345 346 345 341 338 337 338 339 342 344 346 346 345 344 344 344 342 335 326 322 322 322 322
347 348 348 349 349 349 347 342 335 329 326 325 326 325 325 325 325 325 326 325 325 325 325 325 325 326 329 331 332 333 334 335 335 335 335 335 335 335 336 336 336 337 337 337 337 337 337 336 335 335 334 333 332 332 331 333 337 341 342 342 343 344 345 346 345 345 341 337 336 338 340 342 345 347 346 345 344 345 344 339 330 323 322 321 321
347 348 349 349 350 351 351 349 344 336 329 324 324 324 324 324 325 325 324 324 324 324 324 324 324 325 327 329 331 332 333 334 335 336 336 336 336 336 336 337 337 337 337 337 338 337 337 337 336 335 333 334 333 332 332 333 336 338 339 341 343 344 345 345 345 345 342 339 339 341 340 341 344 346 347 345 345 345 345 343 334 325 322 321 321
348 348 349 350 351 351 352 352 351 347 339 329 325 324 324 323 324 324 324 324 324 324 324 324 324 324 326 328 330 331 332 333 334 335 336 336 336 336 336 336 337 337 337 337 336 337 337 337 336 335 333 334 333 333 334 335 335 335 338 342 344 345 346 345 343 342 341 339 341 342 341 340 342 345 346 347 347 346 346 345 338 328 322 322 321
349 349 350 350 351 352 353 353 353 353 349 340 333 330 326 325 325 325 326 327 326 325 324 324 325 325 326 328 330 331 331 332 333 334 335 335 336 336 336 336 336 336 336 336 335 335 335 335 335 335 334 334 335 334 335 336 336 336 338 342 345 345 345 344 342 340 338 337 339 341 341 339 339 343 346 347 348 348 348 346 340 330 322 321 321
349 350 351 351 352 353 354 354 354 355 354 351 346 341 335 332 332 333 332 331 330 329 327 326 326 328 329 330 330 330 331 331 332 332 333 334 334 335 335 335 335 335 335 335 334 334 334 334 335 335 334 335 336 336 336 336 337 338 340 342 342 342 343 343 341 339 338 337 338 339 339 337 337 342 346 347 348 349 349 347 342 331 323 321 322
350 351 352 353 354 355 355 355 356 356 355 354 353 349 346 344 344 342 339 336 335 333 331 330 330 331 331 332 331 331 331 331 332 332 332 333 334 334 334 334 334 335 335 334 333 333 333 334 334 335 335 335 336 336 336 337 337 339 341 341 341 342 343 344 342 341 341 339 336 336 337 337 336 342 346 347 348 350 349 347 343 334 324 321 321
352 353 354 354 355 356 356 356 357 357 357 357 356 354 353 352 352 350 347 344 342 339 336 335 334 334 333 333 333 332 331 331 332 332 332 334 334 334 334 334 334 334 334 334 334 333 333 334 335 335 335 335 335 335 336 336 338 341 342 342 342 346 348 347 346 344 344 342 336 334 337 338 338 343 347 348 348 348 348 346 343 335 326 321 321
354 355 355 356 356 357 357 357 358 358 359 359 358 358 357 356 355 354 352 350 348 343 340 337 336 335 335 335 334 334 333 332 332 332 332 334 334 335 335 335 334 334 333 333 334 334 334 335 335 336 335 335 335 335 335 336 339 342 344 345 347 349 350 348 347 346 347 348 343 338 339 341 341 344 348 349 348 347 347 345 343 336 327 321 321
Wind_Speed
6 6 7 7 7 7 7 7 7 7 7 8 8 8 8 7 7 8 10 11 11 11 11 10 10 11 11 12 12 12 12 12 11 9 8 7 6 5 5 5 5 4 3 3 3 3 3 3 3 3 3 3 4 4 4 5 5 5 6 6 7 7 8 8 8 9 9 9 10 10 10 11 11 10 10 10 10 10 9 8 8 7 7 7 7
5 6 6 6 6 7 7 7 7 7 7 7 7 8 7 7 6 7 9 10 10 10 11 10 10 11 11 11 12 12 12 13 12 11 10 9 8 6 5 5 5 5 5 4 4 4 3 3 3 4 4 4 4 4 4 5 5 6 6 6 6 7 7 8 8 8 9 9 10 10 11 10 10 10 9 10 10 9 8 7 7 7 7 6 6
6 6 6 6 6 7 7 7 7 7 7 7 7 7 7 6 5 6 7 8 9 10 11 11 11 11 12 11 11 11 11 11 11 11 10 9 9 7 6 6 5 5 5 5 5 4 4 4 4 4 4 4 5 5 5 5 5 6 6 6 6 7 7 8 8 8 8 9 9 10 10 10 10 9 9 9 8 7 7 7 7 7 7 7 6
7 7 7 7 7 7 7 7 7 7 7 6 7 7 6 5 5 5 6 8 9 10 12 12 12 12 11 11 11 11 10 10 10 9 9 8 8 7 6 6 6 6 6 5 5 5 5 5 5 5 4 4 4 4 5 5 6 6 6 7 7 7 7 8 8 8 8 8 9 9 9 9 8 7 7 6 7 7 7 8 7 7 7 7 7
8 8 8 8 7 7 7 7 7 6 6 6 6 6 5 5 4 5 6 7 8 10 11 11 10 10 10 10 10 10 9 9 9 8 8 7 7 7 6 6 6 6 5 5 5 5 5 5 4 4 4 4 4 4 5 5 6 6 6 7 7 8 8 8 8 8 8 9 9 9 8 8 8 7 7 7 7 7 8 8 8 8 8 7 8
7 7 8 8 7 7 6 6 6 6 6 5 5 5 5 4 5 5 6 7 8 9 10 10 9 9 9 8 8 8 8 8 8 8 8 7 7 6 6 6 6 6 6 6 6 6 5 5 4 4 4 4 5 5 5 5 6 6 7 7 8 8 8 8 8 8 8 9 9 9 9 9 9 8 8 8 8 8 8 8 8 8 8 8 8
5 6 6 6 7 6 6 6 6 6 5 5 5 5 4 4 4 5 5 6 7 8 9 8 8 9 8 8 8 7 7 7 7 7 7 7 7 6 6 6 6 6 6 5 5 5 5 4 4 4 4 4 5 5 5 5 6 6 7 8 8 7 8 8 8 8 8 8 9 9 9 9 9 9 9 9 9 9 9 9 9 9 9 10 10
4 5 5 5 5 6 6 6 6 5 5 5 5 4 4 4 4 4 5 6 7 7 7 8 8 8 7 7 7 6 6 6 6 6 6 6 6 6 6 6 6 6 5 5 4 4 4 4 4 3 3 3 3 4 5 5 6 7 7 7 7 7 7 7 7 8 8 8 9 9 10 10 10 10 10 10 10 10 10 10 10 10 10 10 11
4 4 5 5 5 5 5 6 6 5 5 5 5 5 5 5 5 5 5 6 6 5 6 7 6 6 6 6 6 5 5 5 5 5 5 5 6 6 6 5 5 5 5 4 4 4 5 5 4 3 3 3 4 4 5 6 6 6 6 6 6 6 6 7 7 7 8 8 9 9 10 10 10 11 11 11 11 11 11 11 11 11 11 11 11
4 4 4 4 5 5 5 6 6 6 5 5 5 5 5 6 6 5 5 6 6 5 5 5 6 5 5 4 5 5 5 5 5 5 4 4 4 5 5 5 5 5 5 4 4 4 5 5 5 4 4 4 4 5 5 5 5 5 5 5 6 6 6 7 7 7 8 9 9 10 11 11 11 11 11 12 12 12 12 12 12 11 11 11 11
4 4 4 4 4 5 5 6 6 6 6 6 6 5 5 6 6 6 5 6 5 4 4 4 5 5 5 4 4 4 4 4 4 4 4 3 4 4 5 5 6 6 6 5 5 5 6 6 7 6 6 6 5 5 5 5 5 6 6 6 6 7 7 7 8 8 9 10 11 11 11 11 12 12 12 12 12 12 12 12 11 11 11 12 12
4 4 4 5 5 5 5 6 6 6 6 6 6 6 6 6 7 7 6 5 4 4 3 3 4 4 5 5 4 4 4 4 4 4 4 4 5 5 5 6 6 6 7 7 7 7 8 8 9 8 8 7 7 6 6 6 6 7 7 7 7 8 8 8 9 10 10 11 11 11 11 11 11 11 11 11 11 11 11 11 11 11 11 11 11
4 4 5 5 5 5 6 6 6 6 6 6 7 7 7 7 7 7 7 6 4 3 2 3 3 3 4 5 5 4 4 4 4 4 5 5 6 6 6 6 7 7 7 7 8 8 9 9 10 10 9 9 8 7 7 7 7 7 7 8 8 8 9 10 10 11 11 10 10 10 10 10 10 10 10 10 10 10 10 10 11 11 11 11 11
4 4 4 4 4 5 6 6 6 6 6 6 7 7 7 7 7 7 6 6 4 3 2 2 2 3 5 6 6 5 5 5 5 5 6 7 7 7 7 7 7 7 7 7 7 8 9 9 9 10 10 10 10 9 9 8 8 8 8 9 9 10 10 10 10 10 10 9 9 9 9 9 9 9 9 10 10 10 10 11 11 11 11 11 12
3 4 4 4 4 5 6 7 6 7 7 7 7 7 7 7 7 7 6 5 3 2 2 2 1 4 6 6 7 6 6 6 6 6 7 7 7 8 7 7 7 6 6 6 7 7 8 8 9 9 9 10 10 10 10 10 9 10 10 10 10 10 10 10 9 9 9 9 9 9 9 9 9 9 9 10 10 10 11 11 11 11 11 12 12
3 3 4 4 4 5 6 7 7 7 8 8 8 8 8 7 8 7 6 5 2 2 2 2 2 3 5 5 7 7 6 6 6 6 7 7 7 8 7 7 6 5 6 6 6 7 7 7 8 8 8 8 9 9 10 10 10 10 10 9 9 9 8 8 8 8 8 9 9 9 9 9 9 9 10 10 10 11 11 11 11 12 12 12 13
4 4 4 4 4 6 7 7 8 8 8 9 9 9 8 8 8 8 6 5 3 3 3 2 1 2 3 4 5 5 6 7 5 5 6 6 7 8 7 7 6 5 5 6 6 6 6 7 7 7 7 8 9 9 9 9 9 9 9 9 8 8 7 7 7 7 8 8 8 8 9 9 9 10 10 11 12 12 13 13 13 13 14 14 16
5 5 4 4 5 6 7 7 8 8 9 9 10 10 9 9 9 8 7 5 4 3 3 2 1 2 3 3 3 4 7 7 5 4 5 6 7 7 7 7 5 4 5 5 5 5 6 6 6 7 7 8 8 8 9 8 8 8 7 7 6 6 6 6 6 7 7 8 9 9 10 10 11 12 13 14 14 15 15 15 16 17 18 19 20
6 6 5 5 5 6 6 7 7 8 9 9 10 10 10 10 10 9 7 6 5 5 5 3 1 1 2 3 3 4 6 6 6 6 4 4 6 6 7 7 6 5 5 5 5 5 5 5 6 6 6 6 6 6 7 7 7 6 6 6 7 7 7 7 8 9 10 11 12 12 12 13 13 14 15 16 16 17 18 19 19 20 21 22 23
7 6 6 6 6 6 5 5 6 7 8 8 9 10 11 11 11 10 8 7 6 6 6 4 2 1 2 2 3 3 4 5 6 6 5 5 5 6 7 7 7 6 6 5 5 4 4 5 5 5 5 5 6 6 6 7 7 8 9 10 11 11 12 12 12 12 13 13 13 13 13 13 14 15 16 17 18 20 21 22 22 23 24 25 26
8 7 7 7 6 6 5 5 5 5 6 7 8 10 12 12 12 11 9 8 8 8 7 5 3 3 2 2 3 3 3 5 6 5 5 5 4 6 6 6 7 7 6 6 5 4 4 4 5 5 5 6 7 7 7 8 10 11 13 14 14 15 15 15 14 13 14 14 13 13 13 14 15 16 17 19 20 21 22 23 25 26 27 27 26
8 8 8 7 7 6 6 5 5 5 5 6 7 9 11 12 13 12 11 10 9 9 7 6 4 4 3 3 2 3 3 4 5 5 4 4 4 5 6 6 7 6 6 7 5 4 3 4 4 5 6 6 7 7 8 9 11 13 14 15 16 17 17 16 14 13 14 14 14 14 14 15 15 16 18 19 21 22 23 25 26 27 26 25 25
10 10 9 8 8 7 7 6 6 6 6 6 7 8 9 11 13 13 13 12 12 10 8 6 6 6 5 4 3 3 4 3 4 4 2 3 4 4 5 6 6 6 6 6 4 4 3 4 5 5 6 7 7 8 9 11 12 14 15 15 16 16 16 16 14 14 14 14 14 14 15 15 16 17 19 20 22 24 25 26 26 25 24 25 26
12 12 11 10 9 8 8 7 7 6 6 7 7 8 8 9 10 11 13 13 13 12 9 7 7 6 6 6 5 5 6 4 5 4 2 2 3 4 4 6 7 6 5 5 4 4 4 4 5 6 8 9 9 10 11 12 13 14 15 15 15 16 16 16 15 15 15 15 15 15 15 16 17 18 21 23 24 25 25 25 25 25 26 28 29
14 13 12 11 10 9 8 7 7 6 6 6 7 7 8 8 9 9 10 11 12 12 10 9 8 7 6 7 7 6 6 6 5 4 3 2 3 3 4 6 7 6 5 5 4 4 4 4 6 7 9 10 11 12 13 14 15 16 16 16 17 17 17 16 16 15 16 16 16 16 16 17 18 21 23 24 25 25 25 24 25 26 28 30 30
14 12 11 11 10 9 9 8 8 7 7 7 7 7 8 8 8 8 8 10 12 12 12 10 9 7 6 6 5 6 6 6 6 5 4 3 2 3 4 5 6 5 5 5 5 4 4 5 6 8 10 11 13 14 15 16 17 17 18 18 18 19 18 17 16 16 16 17 17 18 18 19 20 22 23 24 25 24 24 24 25 27 29 29 28
14 11 11 11 11 10 9 8 9 9 8 8 8 8 9 9 9 9 8 9 11 12 12 11 9 8 6 5 5 5 6 7 6 6 4 3 3 3 4 5 5 5 5 6 6 5 5 5 6 8 10 12 14 15 16 17 17 18 18 18 19 19 18 17 17 17 17 18 19 20 20 21 21 22 23 24 25 24 23 24 26 28 29 28 26
15 12 11 11 11 11 10 9 9 10 10 10 9 9 9 9 9 9 8 8 9 10 11 11 10 9 8 7 6 6 6 6 6 7 5 3 3 3 3 4 6 6 5 6 7 6 6 6 6 8 9 10 12 14 15 16 16 17 17 18 19 19 18 17 17 18 19 20 21 21 21 21 21 22 24 25 24 24 24 24 26 28 27 26 26
17 15 12 12 12 11 11 10 10 10 11 10 10 10 10 10 10 9 8 8 8 9 10 10 10 11 10 10 9 7 6 5 6 7 6 4 4 3 3 4 5 6 7 7 6 5 6 7 6 8 8 8 11 12 14 15 15 16 17 17 18 18 18 18 18 19 20 21 22 21 20 21 21 23 24 25 24 24 24 25 27 28 27 26 27
19 18 15 13 13 12 12 11 11 11 11 11 10 10 11 11 11 10 9 9 8 8 8 9 9 10 11 11 11 9 7 6 7 8 7 5 5 5 5 5 5 5 7 8 6 5 5 7 7 7 7 8 9 11 12 13 14 15 16 16 17 18 18 18 18 20 21 22 21 20 20 21 22 23 25 25 24 24 24 26 28 27 26 26 28
20 20 18 16 14 14 13 12 11 12 12 11 11 11 11 11 11 11 11 10 10 8 7 7 8 9 10 11 11 10 9 8 8 9 9 8 7 7 7 6 5 5 6 8 7 6 6 7 7 7 7 8 9 10 11 11 13 14 14 15 16 17 17 18 19 20 21 21 20 20 21 21 22 23 24 24 24 24 25 26 27 26 25 27 29
21 21 20 19 17 16 14 13 12 12 12 12 12 11 11 11 11 11 11 11 11 9 8 7 8 8 8 9 11 11 11 11 11 11 11 10 9 9 9 8 6 6 7 8 9 8 7 6 7 7 7 7 8 9 10 10 11 12 13 14 16 16 16 17 19 21 21 20 20 20 21 21 22 24 24 24 24 25 25 26 26 25 25 28 29
21 21 21 21 20 18 17 16 14 13 13 12 12 12 12 11 11 11 11 12 12 11 10 9 8 8 8 8 9 11 12 13 14 13 13 12 12 11 11 10 8 7 7 9 10 10 8 7 7 7 7 7 8 9 10 10 10 11 12 14 15 16 16 16 17 19 20 20 20 20 21 22 23 24 24 24 25 25 25 25 25 25 26 28 30
21 21 21 21 21 20 20 18 17 15 14 13 13 13 12 11 11 11 11 12 12 12 12 10 9 9 9 8 8 9 11 14 15 15 15 14 14 13 12 11 9 8 8 9 10 11 11 10 9 8 8 7 8 9 9 10 10 10 12 14 15 16 16 16 15 17 19 20 20 20 22 22 23 24 24 25 25 26 26 26 25 25 26 29 30
22 21 21 21 21 21 21 21 19 17 16 15 14 13 13 12 12 12 12 12 12 13 13 12 11 10 10 9 9 9 10 11 13 15 16 17 16 15 14 13 11 9 9 9 10 12 13 13 11 10 9 9 8 9 9 9 9 10 12 14 14 15 16 16 15 17 19 19 19 20 21 22 22 23 24 25 25 26 27 26 26 25 26 29 31
24 23 22 22 22 22 22 22 21 19 18 16 15 14 13 13 13 12 12 12 13 13 13 13 13 12 12 11 10 10 10 10 11 13 16 17 17 17 15 14 12 11 10 11 12 13 14 15 14 12 10 10 10 9 10 10 9 10 11 13 14 14 15 15 16 17 19 18 18 19 20 21 21 22 24 25 25 26 27 26 26 26 27 29 31
25 25 24 23 23 24 24 24 22 21 20 18 17 15 14 13 13 13 13 14 14 14 14 14 14 14 14 13 11 11 12 11 10 11 12 14 16 16 15 14 13 13 12 12 12 13 14 16 16 15 12 11 11 11 10 10 10 11 11 11 12 13 14 14 15 17 18 18 17 18 20 20 20 21 23 24 25 26 27 27 26 26 27 29 31
26 26 26 26 25 25 25 25 24 23 22 20 19 17 16 15 14 14 13 14 14 15 15 15 15 15 15 15 14 13 14 13 12 11 11 12 13 13 13 13 13 13 13 13 13 14 14 16 17 17 15 13 12 12 11 11 12 12 12 12 12 13 14 14 15 16 17 17 17 17 19 20 20 20 21 23 24 25 26 27 27 27 27 28 31
27 27 28 28 28 27 27 27 26 25 24 23 22 20 19 18 17 16 15 15 14 15 16 16 16 16 16 16 16 15 16 15 14 13 13 13 12 12 12 13 13 14 14 14 14 14 15 16 17 18 17 15 14 14 13 13 12 12 11 11 12 14 15 15 15 16 16 17 16 16 18 19 18 19 20 21 23 24 26 26 26 26 26 27 30
28 28 28 29 29 29 29 29 28 28 27 26 25 23 22 21 20 19 19 17 16 15 15 16 17 18 17 17 17 17 17 17 16 16 15 15 15 14 14 14 15 15 15 16 16 16 16 17 18 18 18 18 16 15 15 14 12 11 11 11 12 14 16 16 16 16 16 16 16 17 18 19 19 18 19 20 22 24 25 25 25 25 25 27 29
29 29 29 29 30 31 31 31 31 30 30 29 28 26 25 24 23 22 22 20 19 18 17 17 17 18 19 19 18 18 18 18 18 17 17 17 17 17 17 17 17 17 17 17 17 17 17 18 19 18 19 19 17 16 16 14 12 10 10 11 13 14 16 17 17 16 16 16 17 18 19 19 19 18 19 19 21 23 24 24 24 24 25 27 29
29 29 29 29 30 31 32 33 33 34 34 33 31 29 28 26 25 25 24 23 22 21 20 19 18 18 19 20 20 19 19 19 19 19 19 19 19 19 19 19 18 18 18 18 18 18 18 19 19 18 19 19 17 16 17 15 13 12 12 13 14 16 18 19 20 18 17 16 17 18 19 18 18 18 18 19 20 22 24 24 24 25 25 27 29
29 28 27 28 29 30 32 34 35 36 36 35 33 31 30 29 28 27 27 26 25 24 23 22 21 20 20 21 21 21 21 21 21 21 21 20 20 20 20 20 20 19 19 19 19 19 19 20 19 19 19 19 18 17 17 16 15 14 14 15 16 18 19 21 22 21 20 18 18 19 19 18 18 18 17 18 19 21 23 24 25 25 26 27 29
29 28 28 27 28 28 30 33 35 37 38 37 35 34 32 31 30 29 29 28 28 27 26 24 23 22 21 21 22 23 23 22 22 22 22 21 21 21 21 21 21 21 21 21 21 20 20 21 21 21 21 21 20 19 18 17 17 16 16 17 17 19 20 20 22 23 22 21 20 20 20 19 18 18 17 18 19 20 22 24 25 26 26 27 28
30 29 28 28 28 28 28 31 34 36 38 38 36 36 35 34 32 32 32 31 30 29 28 27 25 24 23 23 23 24 25 24 24 24 24 23 22 22 22 22 23 23 23 22 22 22 22 22 23 24 23 23 23 21 19 18 19 20 19 19 19 20 21 21 22 23 23 22 21 21 21 19 18 18 18 18 18 20 22 24 25 25 26 27 28
31 30 29 29 29 29 29 30 31 34 36 38 37 36 35 35 34 33 33 33 32 31 30 29 28 26 25 25 25 26 26 26 26 25 25 24 24 24 24 24 24 24 24 24 23 23 23 24 26 26 25 24 24 23 21 20 21 22 22 21 21 22 23 23 24 24 24 23 21 21 21 20 19 19 18 18 18 19 21 23 24 25 25 26 28
31 29 29 30 30 30 29 30 30 32 35 37 37 37 36 36 35 35 34 34 33 33 32 31 30 29 28 27 27 27 27 27 27 26 25 25 25 25 26 25 25 25 25 25 25 25 25 26 26 27 26 25 24 23 22 22 22 23 24 24 24 24 25 26 26 26 26 24 21 20 21 22 21 19 19 18 18 19 21 22 23 24 24 25 27
32 30 29 30 31 30 30 31 31 32 34 34 35 36 37 36 35 35 35 35 35 35 34 33 32 31 30 30 29 29 29 29 28 27 26 26 27 27 27 27 27 27 27 27 26 26 27 27 27 26 26 25 24 23 23 23 24 24 25 26 27 27 27 27 27 26 25 24 22 20 21 23 22 19 18 18 17 18 21 22 22 23 23 25 26
33 32 30 30 30 30 30 31 32 33 34 34 33 34 34 34 34 34 36 36 36 36 35 34 33 32 32 31 31 30 30 30 29 28 27 27 28 29 29 29 29 30 30 29 28 28 28 28 27 27 26 25 25 24 24 24 25 25 26 27 28 27 25 26 25 24 23 24 24 21 21 23 22 18 17 18 17 17 19 20 21 22 22 23 25
31 31 30 29 30 30 30 31 32 32 32 32 32 33 33 32 32 33 34 35 36 36 36 35 34 33 33 33 32 32 32 31 29 28 27 28 28 29 29 29 30 31 31 30 30 30 30 28 28 27 27 27 26 25 24 24 24 24 26 27 25 23 22 22 22 22 22 23 25 23 20 20 20 17 17 18 18 18 18 18 19 21 21 22 23
30 30 30 31 31 30 31 31 31 31 31 31 30 30 30 30 31 32 33 34 36 37 36 36 35 34 34 34 33 33 33 31 30 29 29 29 29 29 28 28 30 32 32 30 30 30 30 29 28 27 27 27 27 27 26 25 24 24 24 25 23 21 22 23 22 22 20 19 22 22 19 19 19 18 17 17 17 18 17 17 18 20 20 20 21
Wind_Direction
129 131 130 129 133 134 127 127 129 126 126 128 129 128 124 121 107 92 90 89 86 87 89 89 86 84 84 82 82 80 79 82 83 82 81 80 81 79 80 83 89 89 84 80 80 86 83 76 66 55 51 42 37 31 23 19 20 22 21 20 24 22 18 11 5 6 6 3 1 357 353 350 349 349 349 347 344 344 347 352 356 358 360 1 3
133 130 128 129 131 131 127 127 126 124 126 127 129 128 126 124 107 88 88 90 88 89 89 89 87 84 83 81 80 79 79 80 80 79 78 78 79 79 77 76 77 75 75 74 73 76 73 66 57 50 45 36 28 19 15 15 13 12 13 15 15 9 5 1 357 359 358 354 354 351 346 343 340 339 336 335 337 342 351 358 2 3 4 6 9
133 128 127 129 131 131 128 127 126 125 124 123 126 126 125 122 104 87 88 91 92 95 93 91 90 86 83 80 79 79 79 79 78 77 76 76 76 76 72 69 65 59 61 63 63 63 60 57 49 43 38 31 21 10 10 14 11 6 6 9 7 360 355 354 354 356 353 348 346 340 334 328 324 324 327 334 343 352 3 5 7 6 7 11 15
129 126 126 126 130 132 129 130 129 127 124 123 125 125 123 116 101 88 91 97 100 102 98 93 90 88 85 81 80 81 80 81 79 77 76 75 74 74 70 65 61 56 54 54 56 56 53 53 49 44 40 35 25 14 14 14 11 6 3 3 1 354 349 351 354 356 350 342 339 333 329 329 332 337 344 353 1 9 12 11 11 11 10 13 16
127 126 126 126 127 128 129 131 132 133 131 131 130 125 121 116 107 98 99 105 106 105 101 95 91 91 87 82 80 81 81 80 78 76 74 72 72 73 74 70 65 61 57 55 55 52 50 50 47 43 36 34 30 22 19 12 7 3 358 356 356 355 352 352 353 354 350 346 345 346 349 357 3 7 12 15 15 16 16 14 13 12 12 11 13
130 129 129 131 132 131 133 134 134 136 135 135 135 125 118 117 113 107 105 109 111 107 102 96 94 93 88 85 82 81 80 77 74 74 72 72 72 71 72 71 70 67 61 58 55 52 49 45 42 35 27 24 23 18 14 5 359 356 356 356 357 356 354 353 355 356 356 357 360 6 13 19 23 22 23 21 19 17 15 14 12 10 9 6 6
140 138 137 138 141 145 148 149 147 145 142 143 142 131 126 128 122 112 109 115 115 108 103 97 95 93 89 87 82 80 79 76 75 75 73 71 69 66 65 64 66 62 57 55 51 48 45 40 35 32 28 22 18 14 6 357 353 355 358 359 358 357 355 356 0 3 4 7 12 20 24 27 29 26 23 20 16 14 12 11 10 7 6 3 1
147 148 147 147 152 158 164 169 168 165 160 157 153 147 144 143 137 127 121 121 114 104 101 98 92 90 86 82 80 80 79 76 75 74 73 70 66 64 61 59 57 50 46 43 34 28 22 17 11 10 10 6 2 358 353 354 354 357 359 357 359 360 1 4 6 9 11 13 19 26 29 29 28 25 22 18 15 13 10 9 8 6 4 1 358
155 156 154 156 161 168 176 182 183 181 177 170 165 164 159 155 155 147 133 125 117 106 102 97 91 84 74 71 79 83 79 76 76 75 74 69 63 61 57 51 46 36 30 26 19 13 5 1 358 349 344 341 341 347 354 359 1 4 3 3 6 8 11 14 15 17 19 22 27 30 30 29 28 25 22 19 16 14 11 9 8 5 2 360 358
172 169 165 165 167 170 179 185 190 189 184 179 174 173 167 163 166 161 144 135 127 116 108 99 89 78 60 63 82 85 81 81 80 79 74 65 54 50 46 41 35 26 21 21 20 17 15 15 17 13 6 2 2 6 9 12 13 15 17 18 20 22 26 27 27 30 32 34 34 33 31 29 27 24 21 18 15 13 11 9 7 4 1 359 356
181 179 179 178 177 175 178 184 191 188 182 180 179 178 171 167 172 170 158 147 137 124 113 99 85 75 62 65 79 82 85 87 81 75 64 54 45 40 37 36 34 31 31 38 42 40 38 38 37 35 32 32 32 32 30 30 32 33 34 35 35 37 39 39 39 39 39 38 35 33 30 27 24 22 19 15 13 10 8 6 4 1 358 355 353
186 188 188 189 189 183 180 184 188 183 177 175 177 179 172 166 170 171 167 159 152 139 119 102 83 71 63 59 61 73 84 84 75 64 52 49 45 41 43 44 44 46 50 59 62 58 55 52 51 50 47 47 46 46 46 46 48 47 47 47 46 46 45 44 43 41 39 37 34 31 28 25 21 18 14 10 7 4 1 358 356 354 351 348 346
192 192 187 189 192 188 186 187 188 182 177 173 173 176 169 163 164 166 169 167 165 155 134 117 83 49 37 36 44 63 77 75 64 54 53 54 53 49 50 53 55 58 64 68 67 64 60 57 56 55 53 51 49 51 51 52 53 52 53 51 50 49 46 44 41 39 37 33 31 27 23 19 14 11 6 2 359 355 352 349 347 344 341 337 334
188 188 181 182 186 187 188 189 188 184 180 177 172 172 170 166 164 165 169 171 169 166 156 130 68 20 17 28 45 61 69 64 56 57 61 60 56 53 52 55 60 66 69 68 65 64 64 59 56 54 52 51 50 51 51 51 52 53 53 52 50 48 45 42 38 35 32 28 25 21 17 13 8 5 1 357 354 352 349 346 343 339 335 331 327
174 177 174 179 183 184 184 185 184 181 182 181 175 172 173 172 171 171 174 175 175 181 172 143 58 15 18 26 38 55 66 61 60 69 66 57 52 48 48 53 59 68 70 65 61 60 59 55 54 52 51 51 52 53 54 54 54 54 53 51 48 45 41 37 34 30 27 24 21 17 13 9 5 2 357 354 350 347 345 341 338 334 330 327 322
166 171 176 182 184 183 183 181 180 178 181 184 180 177 177 178 179 179 177 176 184 191 170 134 80 18 9 12 31 51 55 46 59 74 63 53 50 46 44 48 54 60 59 55 51 49 49 50 52 52 51 52 54 54 55 54 53 53 51 49 46 43 39 35 31 27 23 19 14 9 5 2 358 354 348 343 339 335 332 330 327 324 320 317 313
168 170 177 185 186 188 186 184 184 183 184 186 186 184 185 185 184 183 178 178 186 189 177 141 72 11 359 359 25 45 30 25 49 68 60 56 48 44 42 42 41 39 45 50 48 46 47 49 52 55 56 57 56 55 54 52 52 51 50 48 45 41 37 31 25 17 11 4 359 355 351 348 343 338 332 328 325 322 320 318 316 314 312 310 309
173 174 180 187 189 190 190 189 189 188 189 191 192 192 192 191 185 182 181 185 194 196 202 214 348 344 345 352 7 15 9 16 32 41 61 61 43 37 38 38 33 26 40 54 52 47 48 54 58 61 63 61 59 57 55 53 53 53 50 45 39 30 21 12 2 354 347 342 338 335 332 330 328 325 323 320 319 317 316 316 315 315 315 315 314
176 180 185 192 193 192 192 193 191 191 191 192 195 197 198 196 189 187 192 197 200 201 209 229 281 321 340 356 6 11 10 14 14 16 30 32 30 33 31 34 37 33 40 50 49 44 48 60 64 64 63 56 52 49 47 47 45 41 31 18 6 355 345 338 333 330 330 330 328 327 326 325 324 323 322 321 321 322 322 323 323 323 322 321 319
180 184 191 196 197 196 199 201 198 196 194 191 192 197 202 200 195 197 204 206 204 203 207 219 247 287 332 347 347 7 19 12 3 6 1 352 11 26 28 40 45 41 45 48 48 49 55 65 65 61 49 31 25 22 19 17 13 7 3 0 357 351 343 336 331 329 330 330 329 328 327 326 326 325 326 327 329 330 330 330 329 327 326 324 322
186 189 197 202 201 201 207 209 205 203 200 197 197 200 204 203 201 205 212 214 210 209 213 220 238 256 282 319 323 345 2 357 355 358 355 349 2 12 22 43 44 42 50 49 48 53 59 64 59 45 29 16 12 8 4 358 354 351 350 351 350 348 345 341 336 332 330 329 328 328 328 328 328 329 332 334 334 333 332 331 330 329 328 327 326
193 195 200 204 204 201 203 206 208 210 208 209 209 207 209 209 210 211 216 222 221 219 225 232 245 251 254 280 299 310 321 341 351 346 346 351 353 2 15 23 22 31 46 48 51 53 53 52 40 27 17 9 1 357 356 352 349 346 343 341 341 340 340 339 335 332 330 328 328 329 329 330 330 333 335 335 332 331 330 330 330 331 332 334 336
201 202 203 206 208 203 199 202 208 214 214 217 218 216 215 215 218 220 223 228 228 229 234 240 258 264 258 262 265 272 278 305 335 327 326 347 344 356 4 2 8 19 30 40 50 45 35 29 19 10 2 356 352 350 348 346 345 344 342 339 337 337 336 336 334 333 332 331 331 332 331 331 332 333 333 332 331 331 330 331 333 335 340 344 344
206 207 206 208 210 208 205 206 211 216 217 219 221 223 223 221 222 225 228 229 228 231 236 243 262 270 264 264 258 255 255 267 306 310 283 305 332 352 350 351 4 10 16 31 46 39 24 9 1 357 356 354 352 349 345 345 347 348 347 345 343 343 342 340 338 338 338 337 337 336 334 332 332 331 332 333 333 332 332 335 339 344 348 347 344
210 211 210 211 214 215 215 216 217 218 216 216 219 224 229 229 226 226 228 227 226 230 235 244 259 263 263 267 258 248 250 260 282 288 268 278 317 340 332 340 354 0 14 35 46 36 15 355 350 350 353 352 350 348 348 350 351 352 352 350 350 350 349 346 343 342 342 341 339 337 335 332 331 332 334 335 335 335 337 341 346 351 350 346 343
216 216 216 217 220 222 224 222 218 216 216 216 218 221 226 229 227 223 223 226 228 232 237 245 253 254 257 266 258 244 250 263 272 268 257 277 302 314 319 334 351 3 23 43 56 47 18 355 349 350 351 350 348 349 350 351 351 351 351 351 352 352 350 347 343 342 343 340 338 335 334 333 333 336 337 337 338 340 343 347 351 352 348 345 344
221 222 223 223 224 226 229 228 221 218 218 218 219 220 222 226 226 220 218 222 228 232 236 242 246 247 248 253 251 253 263 268 263 253 246 267 281 286 311 332 354 11 33 51 53 45 29 14 2 357 356 352 349 348 348 349 349 348 350 351 352 352 348 345 342 340 339 337 335 334 334 335 337 339 340 341 343 346 349 351 352 349 346 345 346
225 226 226 226 227 229 231 231 225 221 222 220 219 221 223 225 228 224 218 219 226 229 230 233 238 243 243 243 244 256 270 266 249 240 239 257 267 266 296 326 349 2 21 42 45 39 33 28 12 359 359 353 348 345 344 345 345 346 348 350 352 351 347 343 339 336 334 334 335 336 337 339 341 343 344 345 347 350 352 352 350 347 346 346 347
226 227 227 228 230 231 230 230 227 224 224 224 221 222 225 228 232 231 225 224 226 228 228 229 235 241 241 240 243 251 262 256 239 236 239 247 249 253 278 307 337 352 1 13 30 38 25 17 5 354 357 352 343 341 339 340 343 344 346 349 350 349 345 341 335 331 330 333 336 338 340 342 345 347 348 348 350 353 353 351 349 347 345 347 349
226 227 228 228 229 231 228 227 228 227 226 228 227 227 228 230 233 235 233 232 231 230 229 231 235 242 241 236 236 240 242 241 237 237 243 248 249 255 268 284 310 338 349 351 2 20 12 6 358 347 348 346 341 338 335 336 339 341 344 347 347 345 341 336 331 328 329 334 337 340 343 346 348 350 351 352 354 355 352 350 348 346 345 348 351
226 226 227 226 226 228 227 225 226 228 228 230 232 234 234 234 234 236 237 237 238 235 233 235 238 242 240 231 227 228 228 229 233 239 245 247 249 258 266 274 290 315 335 339 339 347 357 1 354 341 336 336 335 333 329 328 334 338 341 344 345 343 339 334 329 328 330 334 338 341 344 347 349 351 353 355 357 354 352 350 348 345 346 350 352
228 226 225 224 224 225 226 225 224 226 228 231 234 237 238 239 239 239 240 240 241 241 239 240 240 243 242 231 225 225 226 228 230 236 244 247 249 257 264 269 278 297 320 329 326 329 342 349 344 336 330 326 326 325 321 320 326 332 335 338 341 341 340 335 329 328 332 334 337 341 344 347 349 351 354 358 358 354 352 350 347 346 348 352 353
230 228 225 223 224 225 226 226 224 225 226 229 233 236 238 240 241 244 245 243 244 245 244 244 241 241 243 237 229 227 230 233 234 236 241 247 251 256 262 268 273 289 310 318 318 320 327 334 337 334 325 320 320 317 314 315 319 324 328 332 337 339 339 337 329 327 331 333 335 340 343 346 349 350 354 358 358 354 352 351 348 348 350 353 353
233 231 229 226 224 225 225 226 225 225 227 228 230 235 237 240 241 244 247 247 246 246 245 245 243 240 240 238 234 233 235 238 240 240 241 245 251 257 263 267 271 284 301 308 310 313 318 325 332 331 323 319 318 313 310 312 314 318 320 325 332 334 335 336 330 326 329 332 333 338 342 345 347 348 351 356 356 353 352 352 350 349 351 353 353
238 236 234 232 228 225 225 226 226 227 229 229 230 234 238 242 244 244 246 247 247 246 245 244 243 242 241 237 235 238 241 243 243 243 243 245 250 255 261 265 270 280 292 298 303 308 311 315 320 323 321 317 316 314 310 310 312 317 320 321 327 330 332 334 329 324 326 329 329 333 338 342 344 345 349 352 353 351 352 352 350 349 351 353 354
239 239 238 237 233 228 226 226 227 229 230 230 232 236 239 243 247 248 248 246 246 246 246 245 243 243 245 243 240 241 245 246 245 244 245 248 252 256 259 262 268 276 284 291 297 302 304 306 310 314 314 311 310 310 309 307 306 314 321 322 325 327 330 333 329 323 325 326 325 327 334 339 341 343 346 348 349 350 351 351 350 350 352 353 354
238 239 239 238 236 232 228 226 227 228 230 232 235 238 241 244 247 250 251 249 248 247 246 246 245 244 245 246 246 246 248 248 246 246 247 248 250 252 254 257 264 273 280 285 290 294 296 300 303 306 308 307 305 305 305 303 300 305 314 320 325 326 327 330 330 325 325 326 324 324 331 336 339 341 343 345 346 348 349 349 349 351 352 353 353
235 237 239 238 237 234 232 230 229 229 231 234 236 239 243 245 247 249 251 252 251 250 249 249 248 248 247 247 246 247 249 251 250 249 249 248 247 246 248 255 262 269 275 279 283 287 289 292 297 301 305 306 303 302 300 297 297 300 305 310 317 322 324 327 330 327 324 325 325 325 330 335 337 339 340 341 342 345 347 348 348 350 351 352 352
234 236 237 238 238 237 236 234 233 232 233 235 237 241 244 247 248 249 251 252 253 253 251 251 251 251 251 249 247 246 247 249 249 249 249 248 248 247 249 255 261 266 270 274 277 280 284 287 291 296 301 302 302 301 298 294 293 297 302 305 309 316 323 328 332 330 325 323 324 325 329 333 334 335 336 338 341 344 345 346 346 347 349 350 351
236 236 237 238 239 239 239 238 237 236 236 237 239 241 244 247 249 250 251 252 253 253 253 252 251 251 252 252 249 247 245 246 247 248 249 249 250 251 252 254 259 264 268 271 274 277 280 284 288 292 296 298 300 300 295 289 289 294 304 309 310 314 320 326 332 334 328 324 324 324 327 331 333 332 333 336 339 342 343 344 343 344 347 349 351
240 239 238 239 240 241 241 241 240 240 240 239 239 240 242 245 248 251 252 253 254 255 254 253 252 251 251 251 251 250 247 246 246 246 247 248 250 252 253 255 259 263 266 268 271 274 278 281 285 289 292 296 300 299 290 283 285 293 301 307 310 314 317 320 324 328 328 324 322 321 323 328 330 330 330 333 336 340 342 341 340 341 345 348 350
243 242 241 240 240 241 242 242 242 242 242 241 240 240 242 244 247 250 252 253 255 257 256 254 252 251 250 250 250 250 249 249 248 246 246 247 248 251 254 257 260 263 266 267 269 273 276 279 282 285 289 294 298 296 288 282 284 290 297 303 308 311 314 315 316 318 323 324 320 318 319 322 326 327 327 329 332 337 340 340 339 340 344 348 349
245 244 243 242 241 241 242 242 243 243 243 242 242 242 242 243 246 248 250 252 255 256 257 256 253 251 250 249 249 248 247 247 248 248 248 248 249 250 252 255 258 261 263 265 267 270 273 276 278 281 284 288 293 292 287 285 284 287 294 300 304 308 310 311 311 312 317 321 319 315 314 317 322 324 325 326 329 334 338 339 338 340 343 347 348
247 245 244 243 243 242 243 243 243 243 243 242 242 243 243 243 245 247 249 252 254 254 255 255 254 252 250 249 249 248 246 245 246 248 250 250 251 252 253 255 257 258 259 261 264 267 270 273 275 276 279 284 289 289 285 283 283 285 289 293 298 303 305 307 308 308 311 316 317 313 310 313 318 321 323 325 327 330 334 337 338 339 343 345 347
249 248 247 246 246 245 244 244 244 244 244 243 242 242 242 242 243 246 248 250 251 252 252 253 253 252 250 249 248 248 248 246 245 246 249 250 251 252 254 255 256 257 258 259 261 263 265 268 270 273 277 282 285 285 283 279 279 282 285 288 292 296 299 302 304 304 306 310 312 310 308 309 313 317 320 323 325 326 330 335 338 340 342 343 344
251 250 249 249 249 247 246 246 246 246 246 244 242 241 241 241 242 244 246 248 250 250 250 250 251 251 251 249 247 248 248 248 246 246 247 249 251 252 252 253 254 254 255 256 257 258 260 263 267 271 276 278 280 282 280 276 275 278 280 284 287 290 293 296 298 300 302 305 306 305 304 305 308 312 316 319 321 323 326 332 337 340 340 340 342
253 252 252 252 252 250 249 249 249 248 246 245 244 242 241 241 241 243 245 247 248 249 248 249 250 251 250 248 247 246 247 248 247 247 247 249 251 252 252 252 252 252 252 252 254 257 259 262 265 269 273 274 275 277 278 276 275 275 276 279 281 283 287 290 293 296 298 299 300 300 299 300 303 307 311 313 316 320 323 329 335 338 338 338 340
254 254 252 252 252 251 250 250 250 248 246 245 244 243 242 241 242 243 245 245 247 248 248 248 249 249 249 247 246 245 245 247 248 247 248 250 251 252 253 253 253 254 254 253 254 257 259 262 264 266 269 270 271 272 273 274 273 273 274 274 276 279 283 286 289 291 294 295 295 294 295 295 297 301 305 308 312 316 319 325 332 336 336 336 338
254 254 253 253 252 252 251 250 250 249 247 245 244 243 242 242 242 243 244 245 246 247 247 248 249 248 247 246 245 244 244 245 246 246 246 248 250 251 253 254 255 256 257 257 258 259 260 262 264 265 266 267 268 268 268 269 269 270 270 271 274 278 281 282 283 286 289 290 290 290 291 291 293 297 300 303 307 310 314 320 327 333 333 333 336
255 257 257 256 255 253 251 251 250 250 250 248 247 245 244 243 243 244 244 245 246 246 246 247 247 246 246 244 244 244 243 244 244 245 245 245 247 249 251 254 256 257 257 259 261 262 262 262 264 264 265 265 266 265 265 266 265 263 264 266 270 273 274 275 279 283 284 285 287 289 289 288 292 295 297 302 306 306 308 315 323 329 331 331 333
257 258 258 257 256 254 254 253 253 253 253 252 251 249 247 245 245 245 245 246 246 245 245 245 245 244 245 244 243 243 243 243 243 243 243 245 247 249 250 253 255 256 257 258 261 263 264 265 264 264 264 264 264 264 264 264 262 259 259 261 263 264 266 271 277 279 278 279 282 285 286 288 290 290 292 299 304 303 305 313 320 324 328 328 330